EA5SW-14 Weather Reports


Display with metric or nautical units.
time (UTC)temp
F
wind
direction
speed
MPH
gust
MPH
rain 1hr
in
rain 24hr
in
rain mn
in
humidity
%
barometer
mb
20260507100249 61 37 2.0 6.0 0.00 0.00 0.00 65 1007.5
20260507095306 61 90 4.0 6.0 0.00 0.00 0.00 65 1007.5
20260507094240 61 55 3.0 6.0 0.00 0.00 0.00 64 1007.4
20260507093235 61 99 4.0 8.0 0.00 0.00 0.00 64 1007.3
20260507092251 61 68 2.0 4.0 0.00 0.00 0.00 64 1007.4
20260507091226 61 68 3.0 8.0 0.00 0.00 0.00 65 1007.3
20260507090222 61 90 4.0 8.0 0.00 0.00 0.00 64 1007.2
20260507085218 61 52 2.0 6.0 0.00 0.00 0.00 66 1007.3
20260507084314 60 68 3.0 7.0 0.00 0.00 0.00 67 1007.3
20260507083330 60 90 4.0 7.0 0.00 0.00 0.00 67 1007.2
20260507082307 59 90 3.0 7.0 0.00 0.00 0.00 70 1007.3
20260507081301 57 135 4.0 7.0 0.00 0.00 0.00 74 1007.2
20260507080257 56 39 3.0 4.0 0.00 0.00 0.00 79 1007.2
20260507075253 55 58 3.0 4.0 0.00 0.00 0.00 79 1007.1
20260507074249 54 37 3.0 6.0 0.00 0.00 0.00 81 1007.2
20260507073245 54 53 4.0 8.0 0.00 0.00 0.00 81 1007.1
20260507072241 54 30 2.0 6.0 0.00 0.00 0.00 82 1007.2
20260507071257 53 49 2.0 4.0 0.00 0.00 0.00 83 1007.1
20260507070232 53 86 1.0 2.0 0.00 0.00 0.00 82 1007.1
20260507065227 52 68 2.0 4.0 0.00 0.00 0.00 84 1007.2
20260507064223 51 84 2.0 4.0 0.00 0.00 0.00 86 1006.7
20260507063219 51 45 3.0 6.0 0.00 0.00 0.00 87 1006.5
20260507062315 50 30 2.0 4.0 0.00 0.00 0.00 89 1006.3
20260507061310 50 34 2.0 4.0 0.00 0.00 0.00 90 1006.3
20260507060326 50 37 2.0 4.0 0.00 0.00 0.00 90 1006.2
20260507055305 50 23 2.0 2.0 0.00 0.00 0.00 89 1006.2
20260507054317 49 0.0 0.0 0.00 0.00 0.00 90 1006.2
20260507053312 49 0.0 0.0 0.00 0.00 0.00 90 1006.2
20260507052248 50 23 2.0 4.0 0.00 0.00 0.00 89 1006.2
20260507051244 50 86 1.0 2.0 0.00 0.00 0.00 89 1006.2
20260507050300 49 42 2.0 4.0 0.00 0.00 0.00 88 1006.1
20260507045235 50 64 2.0 4.0 0.00 0.00 0.00 89 1006.0
20260507044230 50 49 1.0 4.0 0.00 0.00 0.00 90 1006.1
20260507043246 49 45 2.0 4.0 0.00 0.00 0.00 90 1006.0
20260507042222 50 28 2.0 4.0 0.00 0.00 0.00 91 1006.0
20260507041218 50 23 2.0 4.0 0.00 0.00 0.00 91 1005.9
20260507040334 50 23 2.0 2.0 0.00 0.00 0.00 91 1006.0
20260507035310 50 38 2.0 4.0 0.00 0.00 0.00 91 1005.8
20260507034305 50 30 3.0 4.0 0.00 0.00 0.00 91 1005.9
20260507033301 50 68 4.0 4.0 0.00 0.00 0.00 91 1005.9
20260507032257 50 51 3.0 4.0 0.00 0.00 0.00 91 1006.2
20260507031253 50 23 1.0 2.0 0.00 0.00 0.00 91 1006.2
20260507030248 50 23 3.0 4.0 0.00 0.00 0.00 90 1006.2
20260507025244 51 53 2.0 4.0 0.00 0.00 0.00 90 1006.2
20260507024240 51 60 4.0 7.0 0.00 0.00 0.00 90 1006.1
20260507023236 51 61 4.0 7.0 0.00 0.00 0.00 89 1006.4
20260507022231 51 51 4.0 8.0 0.00 0.00 0.00 89 1006.3
20260507021227 51 30 3.0 7.0 0.00 0.00 0.00 88 1006.5
20260507020223 52 45 3.0 4.0 0.00 0.00 0.00 88 1006.6
20260507015219 52 32 3.0 6.0 0.00 0.00 0.00 88 1006.7
20260507014335 52 15 3.0 6.0 0.00 0.00 0.00 87 1006.7
20260507013310 52 5 3.0 6.0 0.00 0.00 0.00 87 1006.7
20260507012307 52 6 2.0 4.0 0.00 0.00 0.00 87 1006.9
20260507011322 52 30 3.0 4.0 0.00 0.00 0.00 87 1006.8
20260507010318 53 30 3.0 4.0 0.00 0.00 0.00 87 1006.8
20260507005314 53 23 3.0 4.0 0.00 0.00 0.00 86 1006.9
20260507004250 53 41 3.0 6.0 0.00 0.00 0.00 86 1007.1
20260507003245 53 45 4.0 7.0 0.00 0.00 0.00 86 1006.9
20260507002301 53 30 4.0 8.0 0.00 0.00 0.00 86 1007.1
20260507001237 53 38 4.0 7.0 0.00 0.00 0.00 86 1006.7
20260507000234 53 68 4.0 8.0 0.00 0.00 0.00 86 1006.8
20260506235259 53 51 3.0 6.0 0.00 0.00 0.00 86 1007.1
20260506234334 53 23 4.0 6.0 0.00 0.00 0.00 85 1007.1
20260506233250 53 34 4.0 8.0 0.00 0.00 0.00 85 1007.1
20260506232246 54 37 4.0 7.0 0.00 0.00 0.00 84 1007.1
20260506231241 54 69 3.0 7.0 0.00 0.00 0.00 84 1007.1
20260506230237 54 37 3.0 6.0 0.00 0.00 0.00 84 1007.2
20260506225233 54 35 4.0 6.0 0.00 0.00 0.00 84 1007.2
20260506224229 54 15 4.0 7.0 0.00 0.00 0.00 84 1007.2
20260506223224 54 33 3.0 6.0 0.00 0.00 0.00 84 1007.1
20260506222220 54 90 4.0 7.0 0.00 0.00 0.00 84 1007.2
20260506221216 54 61 4.0 7.0 0.00 0.00 0.00 84 1007.1
20260506220312 54 28 3.0 8.0 0.00 0.00 0.00 83 1007.2
20260506215307 54 52 4.0 8.0 0.00 0.00 0.00 83 1007.1
20260506214302 54 90 3.0 7.0 0.00 0.00 0.00 83 1007.1
20260506213258 54 72 3.0 4.0 0.00 0.00 0.00 82 1006.9
20260506212254 54 53 5.0 8.0 0.00 0.00 0.00 82 1006.8
20260506211310 55 76 3.0 8.0 0.00 0.00 0.00 82 1006.8
20260506210305 55 66 3.0 8.0 0.00 0.00 0.00 81 1006.6
20260506205301 55 107 4.0 8.0 0.00 0.00 0.00 81 1006.5
20260506204237 55 8 3.0 6.0 0.00 0.00 0.00 81 1006.1
20260506203233 56 54 3.0 6.0 0.00 0.00 0.00 80 1006.0
20260506202259 56 23 3.0 4.0 0.00 0.00 0.00 79 1005.9
20260506201254 56 45 3.0 7.0 0.00 0.00 0.00 78 1005.8
20260506200250 57 74 4.0 8.0 0.00 0.00 0.00 77 1005.7
20260506195246 57 90 3.0 4.0 0.00 0.00 0.00 76 1005.5
20260506194241 58 59 3.0 8.0 0.00 0.00 0.00 76 1005.5
20260506193237 58 58 4.0 7.0 0.00 0.00 0.00 73 1005.2
20260506192233 59 104 3.0 6.0 0.00 0.00 0.00 70 1005.2
20260506191228 59 81 3.0 4.0 0.00 0.00 0.00 68 1005.0
20260506190224 60 90 3.0 4.0 0.00 0.00 0.00 66 1004.9
20260506185219 61 58 3.0 4.0 0.00 0.00 0.00 64 1005.0
20260506184215 62 45 2.0 4.0 0.00 0.00 0.00 65 1004.8
20260506183311 62 90 4.0 8.0 0.00 0.00 0.00 67 1004.7
20260506182307 62 72 3.0 4.0 0.00 0.00 0.00 69 1004.7
20260506181303 62 75 3.0 6.0 0.00 0.00 0.00 69 1004.6
20260506180318 62 63 4.0 11.0 0.00 0.00 0.00 67 1004.7
20260506175254 63 102 4.0 9.0 0.00 0.00 0.00 65 1004.6
20260506174250 64 59 4.0 9.0 0.00 0.00 0.00 65 1004.5
20260506173306 64 58 4.0 6.0 0.00 0.00 0.00 63 1004.5
20260506172241 65 79 3.0 6.0 0.00 0.00 0.00 61 1004.5
20260506171237 65 34 4.0 6.0 0.00 0.00 0.00 59 1004.4
20260506170233 65 35 5.0 9.0 0.00 0.00 0.00 58 1004.5
20260506165228 66 74 4.0 9.0 0.00 0.00 0.00 57 1004.5
20260506164224 67 59 5.0 7.0 0.00 0.00 0.00 56 1004.5
20260506163220 66 90 6.0 9.0 0.00 0.00 0.00 58 1004.4
20260506162236 68 72 5.0 9.0 0.00 0.00 0.00 55 1004.3
20260506161312 70 33 4.0 8.0 0.00 0.00 0.00 50 1004.3
20260506160327 73 285 2.0 2.0 0.00 0.00 0.00 32 1004.1
20260506155306 73 3 3.0 4.0 0.00 0.00 0.00 32 1004.2
20260506154259 73 240 1.0 2.0 0.00 0.00 0.00 34 1004.2
20260506153255 72 203 0.0 2.0 0.00 0.00 0.00 32 1004.3
20260506152251 72 155 3.0 6.0 0.00 0.00 0.00 32 1004.2
20260506151246 72 270 2.0 6.0 0.00 0.00 0.00 33 1004.3
20260506150242 72 326 3.0 4.0 0.00 0.00 0.00 32 1004.2
20260506145238 72 277 3.0 4.0 0.00 0.00 0.00 33 1004.6
20260506144234 72 288 2.0 4.0 0.00 0.00 0.00 32 1004.5
20260506143229 72 308 2.0 4.0 0.00 0.00 0.00 30 1004.7
20260506142225 72 203 3.0 4.0 0.00 0.00 0.00 30 1004.7
20260506141221 72 293 4.0 7.0 0.00 0.00 0.00 31 1004.9
20260506140217 71 51 2.0 4.0 0.00 0.00 0.00 32 1005.0
20260506135312 71 262 1.0 4.0 0.00 0.00 0.00 32 1005.1
20260506134308 71 217 4.0 7.0 0.00 0.00 0.00 35 1005.2
20260506133304 71 195 2.0 4.0 0.00 0.00 0.00 34 1005.3
20260506132300 72 180 3.0 4.0 0.00 0.00 0.00 34 1005.4
20260506131255 72 256 3.0 4.0 0.00 0.00 0.00 37 1005.5
20260506130251 70 227 2.0 7.0 0.00 0.00 0.00 39 1005.6
20260506125247 70 238 3.0 8.0 0.00 0.00 0.00 40 1005.6
20260506124303 68 258 3.0 4.0 0.00 0.00 0.00 43 1005.7
20260506123239 70 315 4.0 6.0 0.00 0.00 0.00 40 1005.6
20260506122234 70 237 1.0 4.0 0.00 0.00 0.00 42 1005.8
20260506121230 68 307 2.0 6.0 0.00 0.00 0.00 43 1005.8
20260506120226 69 274 2.0 4.0 0.00 0.00 0.00 42 1006.0
20260506115222 69 289 2.0 6.0 0.00 0.00 0.00 43 1006.2
20260506114218 67 231 3.0 4.0 0.00 0.00 0.00 44 1006.3
20260506113313 67 248 1.0 4.0 0.00 0.00 0.00 44 1006.3
20260506112309 67 25 2.0 4.0 0.00 0.00 0.00 42 1006.3
20260506111304 67 216 2.0 4.0 0.00 0.00 0.00 45 1006.5
20260506110300 67 225 0.0 2.0 0.00 0.00 0.00 46 1006.3
20260506105256 66 338 0.0 2.0 0.00 0.00 0.00 47 1006.5
20260506104252 68 0 0.0 2.0 0.00 0.00 0.00 44 1006.7
20260506103248 65 49 4.0 7.0 0.00 0.00 0.00 50 1006.6
20260506102305 64 45 1.0 4.0 0.00 0.00 0.00 56 1006.8
20260506101239 64 15 2.0 4.0 0.00 0.00 0.00 58 1006.9